Regional Weather Roundup
Issued by NWS Charleston, WV

Home | Current Version | Previous Version | Text Only | Print | Product List | Glossary Off
Versions: 1 2 3 4 5 6 7 8 9 10 11 12 13 14 15 16 17 18 19 20 21 22 23 24 25 26 27

000
ASUS41 KRLX 231610
RWRRLX
West Virginia Regional Weather Roundup
National Weather Service Charleston WV
1200 PM EDT WED APR 23 2014

Note: "fair" indicates few or no clouds below 12,000 feet with no
significant weather and/or obstructions to visibility.

WVZ003-231700-
Northern Panhandle of West Virginia

CITY           SKY/WX    TMP DP  RH WIND       PRES   REMARKS
WHEELING       CLOUDY    42  31  64 W15G22    30.02R
$$

WVZ009-231700-
Northwest West Virginia

CITY           SKY/WX    TMP DP  RH WIND       PRES   REMARKS
PARKERSBURG    PTSUNNY   49  32  52 NW8       30.08R
$$

WVZ006-231700-
Western West Virginia

CITY           SKY/WX    TMP DP  RH WIND       PRES   REMARKS
HUNTINGTON     SUNNY     52  31  44 MISG      30.06S
$$

WVZ015-231700-
West Central West Virginia

CITY           SKY/WX    TMP DP  RH WIND       PRES   REMARKS
CHARLESTON     PTSUNNY   52  32  46 W6        30.02S
$$

WVZ031-231700-
North Central West Virginia

CITY           SKY/WX    TMP DP  RH WIND       PRES   REMARKS
CLARKSBURG     CLOUDY    47  31  53 NW10      29.99S
MORGANTOWN     NOT AVBL
$$

WVZ035-042-045-231700-
South Central West Virginia

CITY           SKY/WX    TMP DP  RH WIND       PRES   REMARKS
BECKLEY        SUNNY     49  27  42 NW16      29.96F
BLUEFIELD      SUNNY     52  25  35 W9G18     29.97R
LEWISBURG      SUNNY     50  26  39 NW8       29.92F
$$

WVZ047-231700-
Northern Mountains of West Virginia

CITY           SKY/WX    TMP DP  RH WIND       PRES   REMARKS
ELKINS         CLOUDY    46  30  53 W9        29.97S
$$

WVZ052-231700-
Eastern Panhandle of West Virginia

CITY           SKY/WX    TMP DP  RH WIND       PRES   REMARKS
MARTINSBURG    CLOUDY    51  31  46 NW21G35   29.87S
PETERSBURG     MOSUNNY   57  39  50 NW18G28   29.93F
$$



USA.gov is the U.S. government's official web portal to all federal, state and local government web resources and services.